This is the latest recevied weather packets stored in our database for station/object NR0A-4. If no packets are shown the sender has not sent any weather packets the latest 10 day(s).
| Time | Temp. | Humidity | Pressure | Rain* | Wind** | Luminosity | Snow |
|---|---|---|---|---|---|---|---|
| 1777662605 | 13.33° C | 40% | 1019.2 hPa | 0 mm | - | 870 W/m² | - |
| 1777662304 | 12.78° C | 40% | 1019.2 hPa | 0 mm | - | 879 W/m² | - |
| 1777662004 | 12.78° C | 37% | 1019.3 hPa | 0 mm | - | 881 W/m² | - |
| 1777661705 | 12.78° C | 38% | 1019.3 hPa | 0 mm | - | 882 W/m² | - |
| 1777661404 | 12.78° C | 35% | 1019.2 hPa | 0 mm | - | 881 W/m² | - |
| 1777661104 | 12.78° C | 39% | 1019.2 hPa | 0 mm | - | 882 W/m² | - |
| 1777660805 | 12.78° C | 40% | 1019.2 hPa | 0 mm | - | 882 W/m² | - |
| 1777660505 | 12.22° C | 35% | 1019.3 hPa | 0 mm | - | 896 W/m² | - |
| 1777660205 | 12.78° C | 38% | 1019.2 hPa | 0 mm | - | 893 W/m² | - |
| 1777659905 | 12.22° C | 39% | 1019.2 hPa | 0 mm | - | 888 W/m² | - |
| 1777659605 | 12.22° C | 38% | 1019.4 hPa | 0 mm | - | 888 W/m² | - |
| 1777659304 | 12.22° C | 43% | 1019.4 hPa | 0 mm | - | 882 W/m² | - |
| 1777659005 | 12.22° C | 41% | 1019.4 hPa | 0 mm | - | 183 W/m² | - |
| 1777658705 | 12.22° C | 39% | 1019.4 hPa | 0 mm | - | 891 W/m² | - |
| 1777658404 | 12.22° C | 39% | 1019.4 hPa | 0 mm | - | 884 W/m² | - |
| 1777658105 | 12.22° C | 37% | 1019.5 hPa | 0 mm | - | 874 W/m² | - |
| 1777657805 | 12.22° C | 39% | 1019.5 hPa | 0 mm | - | 874 W/m² | - |
| 1777657504 | 12.22° C | 40% | 1019.6 hPa | 0 mm | - | 874 W/m² | - |
| 1777656905 | 11.67° C | 44% | 1019.7 hPa | 0 mm | - | 868 W/m² | - |
| 1777656605 | 11.67° C | 41% | 1019.7 hPa | 0 mm | - | 893 W/m² | - |
| 1777656304 | 11.67° C | 40% | 1019.6 hPa | 0 mm | - | 856 W/m² | - |
| 1777656005 | 11.67° C | 39% | 1019.6 hPa | 0 mm | - | 856 W/m² | - |
| 1777655704 | 11.67° C | 41% | 1019.7 hPa | 0 mm | - | 842 W/m² | - |
| 1777655405 | 11.67° C | 41% | 1019.7 hPa | 0 mm | - | 838 W/m² | - |
| 1777655104 | 11.67° C | 40% | 1019.6 hPa | 0 mm | - | 833 W/m² | - |
* Rain latest hour (hover to see other rain measurements)
** Current wind speed in m/s (hover to see current wind gust speed)